Location: Newark
(39.6867°N, 100.6772°W)
Time: 22:15:52
(UTC+00:00)

Explorer 7 - Visible Passes

Search period start: 15 October 2019 00:00
Search period end: 25 October 2019 00:00
Orbit: 485 x 680 km, 50.3° (Epoch: 14 October)

Date Brightness Start Highest point End Pass type
(mag) Time Alt. Az. Time Alt. Az. Time Alt. Az.
15 Oct 6.8 01:58:12 10° NW 02:02:17 82° N 02:02:17 82° N visible
16 Oct 7.1 02:03:14 10° WNW 02:07:20 62° SW 02:07:22 62° SW visible
17 Oct 7.4 00:27:55 10° NW 00:31:45 41° NNE 00:35:49 10° E visible
17 Oct 8.0 02:08:24 10° WNW 02:12:16 37° SW 02:12:35 36° SSW visible
18 Oct 6.9 00:32:50 10° NW 00:36:50 61° NNE 00:41:04 10° ESE visible
18 Oct 8.9 02:13:50 10° W 02:17:07 22° SW 02:17:58 21° SSW visible
19 Oct 6.9 00:37:48 10° NW 00:41:51 85° SSW 00:46:08 10° SE visible
19 Oct 9.6 02:19:53 10° W 02:21:56 13° SW 02:23:33 11° SSW visible
20 Oct 7.6 00:42:52 10° WNW 00:46:48 51° SW 00:50:57 10° SE visible
21 Oct 8.7 00:48:07 10° WNW 00:51:42 30° SW 00:55:27 10° SSE visible
22 Oct 9.6 00:53:43 10° W 00:56:32 18° SW 00:59:28 10° S visible
23 Oct 10.1 01:00:41 10° WSW 01:01:19 10° SW 01:01:57 10° SW visible
